Regional Weather Roundup
Issued by NWS Midland/Odessa, TX

Skip options and go directly to product.
Home | Oldest Version | Next Version | Current Version | All | Text Only | Save Text | Print | Product List | Glossary On

Skip product version selection by date and time.   
499
ASUS44 KMAF 262101
RWRMAF
MIDLAND AREA WEATHER ROUNDUP
NATIONAL WEATHER SERVICE MIDLAND TX
300 PM CST MON JAN 26 2015

...IN SOUTHWEST TEXAS AND SOUTHEAST NEW MEXICO...

CITY           SKY/WX    TMP DP  RH WIND       PRES   REMARKS
ALPINE         CLOUDY    59  28  30 W8        30.33F
ANDREWS        FAIR      66  26  21 SW3       30.24F
ARTESIA        PTSUNNY   59  36  41 NE6       30.25F
BIG SPRING     MOSUNNY   68  29  23 W9        30.24F
CARLSBAD       MOSUNNY   63  29  27 NE3       30.23F
DRYDEN           N/A     66  31  27 VRB6      30.21F
FORT STOCKTON  CLOUDY    59  37  44 CALM      30.24F
GUAD PASS      NOT AVBL
HOBBS          SUNNY     64  23  20 W3        30.24F
MARFA          CLOUDY    54  28  37 S3        30.31F
MIDLAND AIRPK  MOSUNNY   67  28  23 W5        30.24F
MIDLAND INTL   MOSUNNY   66  32  28 W5        30.23F
ODESSA         PTSUNNY   64  29  26 W6        30.23F
PECOS          PTSUNNY   62  34  35 NW7       30.23F
PRESIDIO       FAIR      55  35  46 W3        30.27F
SEMINOLE       MOSUNNY   66  25  21 W3        30.25F
SNYDER         MOSUNNY  N/A N/A N/A W13       30.21F
WINK           PTSUNNY   62  29  28 VRB5      30.22F
$$
...OTHER STATIONS IN TEXAS...

CITY           SKY/WX    TMP DP  RH WIND       PRES   REMARKS
ABILENE        MOSUNNY   72  32  23 W13       30.17F
AMARILLO       SUNNY     70  32  24 NW12      30.21F
AUSTIN         PTSUNNY   73  34  23 NW8       30.16F
BROWNSVILLE    MOSUNNY   76  28  17 VRB3      30.21F
CORPUS CHRISTI PTSUNNY   72  38  29 W5        30.18F
DALLAS FTW     MOSUNNY   70  37  29 SW9       30.08F
DEL RIO        CLOUDY    69  34  27 CALM      30.20F
EL PASO        PTSUNNY   58  26  29 NW5       30.26F
HOUSTON INT    PTSUNNY   65  34  31 W6        30.17F
LUBBOCK        PTSUNNY   73  25  16 W17       30.19F
SAN ANGELO     PTSUNNY   68  37  32 NW8       30.20F
SAN ANTONIO    CLOUDY    70  37  29 SW8       30.18F
WACO           SUNNY     73  36  25 W8        30.13F
WICHITA FALLS  NOT AVBL
$$
...OTHER LOCATIONS IN NEW MEXICO...

CITY           SKY/WX    TMP DP  RH WIND       PRES   REMARKS
ALAMAGORDO     PTSUNNY   57  25  28 CALM      30.28F
ALBUQUERQUE    PTSUNNY   52  25  35 S5        30.33F
CANNON AFB     SUNNY     64  32  30 N5        30.25F
CLOVIS         SUNNY     64  36  34 NE6       30.24F
HOLLOMAN AFB   PTSUNNY   56  31  38 CALM      30.27F
ROSWELL        PTSUNNY   60  31  33 CALM      30.24F
RUIDOSO        MOSUNNY   55  23  28 N6        30.35S
SANTA FE       SUNNY     57  23  26 N6        30.31F
TRUTH OR CONSE SUNNY     57  26  30 CALM      30.27F
TUCUMCARI      SUNNY     66  29  24 N3        30.23F
$$

USA.gov is the U.S. government's official web portal to all federal, state and local government web resources and services.